Temperature
23 21 20 21 22 23 23 22 21 22 23 22 21 20 20 19 19 18 18 18 18 18 19 18 18 18 18 18 18 18 18 18 18 18 17 17 17 17 17 17 17 16 16 16
21 21 21 22 23 23 22 22 22 22 23 22 21 20 20 19 18 18 18 18 18 18 18 18 18 18 18 18 18 18 18 18 18 18 18 18 17 17 17 17 16 16 16 16
21 22 23 24 24 23 23 22 22 22 22 21 21 21 20 19 19 19 19 18 19 18 18 18 18 18 18 18 18 17 17 18 18 18 17 17 17 17 17 16 16 16 16 15
21 22 23 23 23 24 22 23 23 23 21 20 20 20 20 19 18 18 18 18 18 19 18 19 18 18 18 18 18 18 18 17 18 18 17 17 17 17 17 17 16 16 16 15
21 22 23 23 24 24 23 23 22 21 21 19 19 19 19 18 19 18 18 18 19 19 19 19 19 18 18 18 18 18 17 17 17 17 17 17 17 17 17 17 16 16 16 15
22 23 24 24 24 24 23 22 20 18 18 19 19 19 19 18 19 19 18 19 19 19 19 19 19 18 18 18 18 18 17 17 17 17 17 17 17 17 17 17 16 16 16 16
22 23 23 24 24 24 23 20 19 20 18 19 19 18 18 19 19 19 19 19 19 20 19 19 19 19 18 18 18 17 17 17 17 17 17 17 17 17 17 17 17 16 16 16
21 21 23 23 23 22 21 20 19 20 19 19 19 19 19 20 20 20 20 20 20 20 20 19 19 19 19 18 18 18 17 17 17 17 17 17 17 17 17 17 17 16 16 16
20 20 23 23 23 23 21 19 19 18 18 18 18 18 19 20 19 19 19 19 19 20 20 20 20 19 19 18 18 18 18 17 17 17 17 17 17 17 17 17 17 17 16 16
20 21 22 23 23 22 22 18 17 17 19 19 20 19 19 20 20 19 18 19 20 20 20 20 20 19 19 19 19 18 18 18 18 17 17 17 17 17 17 17 17 17 16 16
20 20 21 22 23 22 20 19 17 16 17 18 19 19 19 19 19 19 18 19 20 20 20 20 20 20 19 19 19 18 18 18 18 17 17 17 17 17 17 17 17 17 16 16
19 18 19 20 21 21 21 19 17 19 18 16 17 18 19 18 18 18 19 19 20 20 20 20 20 19 19 19 19 18 18 18 18 18 17 17 17 17 17 17 17 17 16 16
19 18 19 20 20 20 20 19 17 16 16 15 17 19 19 18 18 18 19 19 20 20 20 20 20 19 19 19 19 18 18 18 18 18 18 18 17 17 17 17 17 17 17 16
18 17 18 20 20 20 20 19 17 17 16 16 17 19 19 18 18 18 18 18 19 20 20 20 20 20 19 19 19 19 18 18 18 18 18 17 17 17 17 17 17 17 17 16
17 18 18 18 19 19 20 19 18 18 17 18 18 18 19 18 17 18 18 18 18 18 19 19 19 19 19 19 19 19 18 18 18 18 17 17 17 17 17 17 17 17 17 16
15 17 18 18 19 19 20 20 19 19 18 18 19 18 18 17 17 17 17 17 17 18 18 18 18 19 19 19 19 18 18 18 18 17 17 17 17 17 17 17 17 17 16 16
15 16 16 16 18 19 19 19 19 19 19 18 18 18 17 16 16 15 16 16 17 17 17 18 18 18 18 18 18 18 18 18 17 17 17 17 17 16 16 16 16 16 16 16
14 14 14 15 17 17 18 19 19 19 18 18 18 17 16 15 15 15 15 16 16 16 17 17 17 17 17 17 17 17 17 17 16 16 16 16 16 16 16 16 16 16 16 15
12 13 13 14 15 17 18 18 18 18 18 17 17 16 15 14 14 14 14 15 15 15 16 16 16 16 16 16 16 16 16 16 16 16 15 15 15 15 15 15 15 15 15 15
12 12 13 14 15 16 17 17 17 17 17 17 16 15 15 15 15 14 13 14 14 14 14 15 15 15 15 15 15 15 15 15 15 15 14 14 14 15 14 14 14 14 14 14
13 13 13 14 15 15 16 16 17 17 17 16 16 15 15 14 14 13 13 13 14 14 14 14 14 14 14 14 14 15 14 14 14 14 14 14 14 14 13 13 13 13 13 13
13 13 13 13 14 15 15 15 16 15 15 15 15 15 14 13 13 13 12 12 13 13 13 13 13 13 13 13 14 14 13 13 13 13 13 13 13 13 13 13 12 12 12 12
12 12 12 13 13 14 14 14 15 15 14 14 14 14 14 13 12 12 12 12 12 12 12 12 13 12 12 12 13 13 12 12 12 12 12 12 12 12 12 12 12 12 11 11
12 12 12 12 13 13 14 14 14 15 15 15 14 14 14 13 12 12 12 12 12 12 12 12 12 12 12 12 12 12 12 12 12 12 12 12 12 11 11 11 11 11 11 10
12 12 12 12 13 13 13 13 14 14 14 14 13 13 14 13 12 12 11 11 11 11 12 12 12 11 11 11 11 11 11 11 11 11 11 11 11 11 11 10 10 10 10 9
12 12 12 13 12 12 12 13 13 14 13 13 13 12 12 13 12 12 11 11 11 11 11 11 11 11 11 11 11 11 11 11 11 11 10 10 10 10 10 10 9 9 9 8
Wind_Speed
3 3 4 7 7 6 5 5 10 10 5 2 4 5 4 4 4 5 6 6 7 8 6 7 8 10 11 10 9 9 9 8 8 6 6 5 4 4 3 4 7 8 9 9
2 6 10 7 6 5 5 6 7 8 4 1 3 4 2 3 6 7 8 8 8 7 6 7 7 8 10 11 11 9 10 10 9 7 5 4 5 3 3 2 4 7 8 9
10 8 4 5 4 4 5 5 7 7 4 4 3 5 3 1 2 2 4 5 6 9 9 9 9 9 10 12 12 12 11 10 10 8 6 5 4 4 3 2 2 3 7 8
8 8 6 6 6 5 6 5 5 4 1 4 3 4 6 2 3 4 4 5 7 7 8 9 9 9 10 11 10 11 11 10 10 10 10 10 7 5 5 4 4 3 6 7
9 6 7 8 8 7 6 1 2 1 2 2 3 1 7 2 4 5 6 6 7 8 9 9 10 9 9 9 10 10 10 10 10 11 11 11 7 5 4 4 5 4 3 5
8 5 6 8 5 5 3 5 6 5 5 2 3 1 6 4 5 5 5 6 7 8 9 8 8 7 7 7 8 9 10 10 10 11 11 11 10 9 8 7 6 5 3 3
6 6 6 5 2 1 4 5 4 6 5 5 2 2 8 7 5 6 5 6 6 7 9 8 8 9 8 9 10 9 10 9 10 10 10 11 11 11 10 9 8 7 5 4
6 8 5 6 9 8 6 9 7 5 5 6 3 5 7 6 5 4 4 4 5 6 8 9 9 9 9 10 10 10 11 10 10 11 10 9 10 8 7 8 8 8 7 6
8 8 4 3 4 9 7 5 6 7 3 2 6 7 8 3 2 1 1 3 4 6 7 8 8 9 9 10 10 11 11 10 10 11 10 9 9 8 8 8 7 6 6 6
10 6 5 3 3 2 5 9 6 6 5 3 6 5 5 6 4 2 1 2 3 4 5 5 6 8 8 8 8 9 10 10 10 10 10 9 9 9 8 8 8 8 8 7
7 7 4 1 5 7 5 5 5 5 5 6 4 7 6 8 5 3 3 2 4 5 6 6 6 7 7 7 8 9 9 9 9 10 9 8 8 8 8 8 9 8 7 8
3 5 3 5 4 2 6 8 8 6 5 5 4 8 5 5 3 2 2 1 2 4 5 5 5 6 6 7 7 8 9 9 9 10 9 9 8 8 8 8 8 8 8 8
4 5 2 5 5 2 2 4 5 6 6 6 5 7 2 1 1 1 1 1 2 3 4 4 5 5 6 6 7 7 8 8 8 8 8 8 8 8 8 8 7 7 7 7
4 4 6 8 7 4 4 4 6 7 5 6 8 8 6 4 3 1 1 2 3 3 4 4 4 4 4 4 5 6 6 6 7 8 7 7 8 8 7 7 7 7 7 7
4 3 5 6 6 5 6 7 9 8 9 9 9 8 9 6 4 3 3 4 5 5 5 4 4 4 4 4 4 5 5 6 7 7 7 7 6 6 6 6 6 6 6 7
3 3 2 4 5 5 6 7 9 8 6 7 5 7 5 2 4 4 4 6 6 5 5 4 4 4 4 4 4 4 4 4 6 6 5 4 4 4 4 4 4 5 4 4
1 4 3 4 4 2 7 9 10 7 7 9 9 8 5 5 5 4 5 6 6 6 5 5 5 5 4 4 4 5 5 6 7 6 4 3 3 3 2 2 3 3 3 3
5 5 4 3 1 8 9 4 6 7 6 7 5 4 8 9 9 7 6 7 8 7 7 6 5 6 6 6 6 7 8 8 7 6 5 4 3 3 3 3 2 1 2 2
5 6 4 4 5 7 7 3 3 6 5 6 9 10 12 14 10 8 7 8 9 9 8 7 7 7 8 8 8 10 10 9 8 7 6 4 4 4 4 4 3 2 3 3
3 3 4 4 5 7 8 3 1 3 4 5 10 14 14 9 6 4 6 9 11 11 10 9 10 11 11 9 10 12 11 10 9 8 6 5 5 5 5 5 5 5 5 6
1 0 4 5 6 7 5 2 2 6 8 4 9 12 11 5 6 11 11 10 11 11 11 11 12 11 10 9 11 13 12 10 7 8 8 9 8 8 7 7 6 7 8 9
3 3 4 4 5 7 3 1 5 5 0 4 6 9 12 15 17 15 13 12 12 12 12 12 12 11 9 9 12 13 10 7 7 9 10 10 9 8 8 8 8 7 8 8
4 5 4 5 6 5 3 4 4 2 3 4 7 13 18 19 18 16 13 12 11 11 10 10 12 13 11 10 11 12 7 6 9 11 10 9 10 9 8 8 8 7 7 7
4 3 3 4 5 4 4 3 2 3 6 9 13 16 18 20 19 17 15 12 11 10 10 10 12 13 11 10 10 9 7 8 11 11 9 8 9 9 9 8 7 6 6 6
4 2 3 3 3 3 4 4 4 8 12 15 14 14 18 21 19 18 15 12 11 10 8 10 11 12 10 9 9 8 7 9 11 9 8 8 8 8 9 9 8 7 6 5
3 4 3 3 2 1 1 3 6 10 12 15 17 15 14 17 19 17 14 11 11 10 9 10 10 10 9 9 8 7 7 8 9 8 7 6 6 6 7 8 9 14 11 13
Wind_Direction
125 107 216 219 204 220 249 268 284 283 291 238 249 265 255 202 195 204 202 195 196 203 193 180 184 182 175 174 176 170 165 158 151 149 148 145 149 147 139 145 150 149 146 142
48 252 233 215 216 223 240 281 288 300 345 23 291 292 269 197 208 212 209 207 204 187 171 177 179 176 180 182 186 179 175 168 167 166 158 148 141 140 139 134 144 155 150 148
199 233 199 200 245 273 275 246 264 278 322 21 0 326 309 297 250 237 223 214 207 194 189 186 187 187 185 187 188 187 185 179 170 158 137 119 100 90 111 136 152 164 160 155
228 248 233 248 253 213 274 254 243 272 333 314 12 296 295 296 293 249 232 214 212 203 195 192 192 191 193 191 187 182 180 175 168 162 162 160 162 165 182 174 170 162 165 162
227 214 195 219 231 193 228 347 62 33 132 349 354 258 292 310 279 260 237 221 213 203 196 194 196 195 190 184 181 177 175 176 172 172 172 167 164 161 149 151 158 163 165 170
240 229 205 215 228 186 164 66 48 51 66 330 287 215 284 252 239 258 240 223 211 200 194 193 189 180 176 174 174 175 175 178 176 176 175 174 170 164 159 168 173 173 169 173
278 264 234 198 258 320 118 90 16 350 360 263 280 244 254 255 238 230 234 225 216 202 192 188 181 180 181 174 173 174 175 178 178 177 181 182 178 174 177 178 181 176 178 189
218 276 242 198 196 198 180 149 164 210 236 278 313 250 257 259 263 241 215 200 193 196 198 194 191 186 185 180 176 174 179 182 179 183 186 184 180 179 183 181 180 186 191 194
193 246 288 235 185 152 148 174 163 140 161 281 286 287 302 282 291 228 158 151 180 200 198 195 190 185 185 184 181 180 181 182 183 185 182 183 181 182 185 184 184 190 192 191
170 233 271 253 111 62 150 143 110 129 154 252 286 281 259 275 275 272 203 183 196 187 186 185 187 187 186 186 179 177 180 185 184 182 185 188 187 190 187 181 187 194 194 189
157 190 280 34 182 190 132 122 121 124 152 169 244 269 230 229 234 230 233 201 187 180 183 186 190 186 179 173 173 177 179 182 183 184 186 183 185 187 184 189 196 196 193 190
147 141 239 260 263 220 174 171 151 158 204 182 190 262 268 226 225 197 218 209 177 174 171 169 167 162 165 173 178 182 183 186 187 184 183 183 180 180 186 196 200 196 197 198
134 118 68 347 339 353 133 149 150 130 126 158 182 258 280 239 250 178 159 156 153 152 140 134 135 146 165 175 180 183 185 191 185 177 179 180 179 182 191 197 195 197 200 202
119 129 170 198 222 218 215 180 156 136 156 193 217 243 275 265 244 187 132 117 120 123 130 133 133 143 154 157 163 172 181 178 172 170 173 182 188 192 195 192 190 194 194 196
98 170 223 239 245 213 221 208 183 185 188 190 222 223 245 234 211 180 144 120 111 104 105 117 127 127 130 133 140 153 162 165 164 162 171 188 186 183 183 189 190 187 188 197
73 179 215 275 263 233 237 227 203 206 196 210 224 246 238 155 124 123 127 125 120 112 107 109 111 115 122 131 134 131 132 144 144 148 159 164 154 162 177 187 184 179 183 188
188 165 169 249 275 281 249 222 201 198 197 183 205 224 154 132 123 125 128 122 119 110 98 97 99 102 102 105 114 111 105 109 116 119 120 118 128 145 167 169 160 169 177 174
171 160 170 209 205 229 243 248 204 193 205 196 192 162 143 129 107 86 93 110 106 99 92 86 86 88 84 85 91 94 92 95 100 102 98 96 109 106 101 110 128 146 147 149
176 162 163 171 213 262 278 247 186 184 228 197 167 144 132 126 100 72 68 91 100 97 91 84 79 81 78 75 82 87 81 83 83 77 72 71 90 96 90 88 86 91 98 102
109 135 158 174 196 230 244 243 239 129 246 203 163 156 154 148 132 135 105 98 95 90 87 83 78 75 73 70 81 84 80 76 73 71 68 63 71 78 78 77 74 73 78 77
359 168 191 200 223 255 261 279 128 184 227 186 164 156 153 142 133 126 117 102 96 92 87 83 78 72 65 69 81 80 73 65 62 68 67 62 62 68 73 75 75 82 83 79
217 214 208 184 213 249 302 250 201 225 237 133 137 135 125 117 115 116 112 104 98 93 86 86 84 75 63 67 81 80 70 60 67 70 67 60 57 62 67 72 70 73 81 81
220 208 209 205 229 274 300 265 275 220 141 120 125 127 127 123 120 116 110 103 98 93 88 86 89 80 65 60 74 79 65 67 73 70 65 62 62 59 59 68 72 71 73 79
269 208 219 260 279 308 332 339 349 118 120 119 125 128 126 122 122 118 114 108 100 93 91 91 89 84 72 62 65 68 67 73 76 71 62 60 64 61 56 55 58 68 69 78
257 236 234 251 285 338 6 32 81 102 110 114 115 120 126 125 124 121 119 115 107 99 91 90 91 88 79 69 63 57 62 76 77 70 66 65 68 73 68 63 54 61 54 80
236 213 206 234 244 174 352 34 94 109 113 117 116 112 115 122 123 122 119 116 112 107 100 94 90 89 84 78 67 52 56 76 81 74 66 70 76 78 82 84 73 55 63 64
Height
1486 1492 1496 1494 1492 1492 1494 1497 1498 1487 1477 1479 1481 1480 1476 1476 1477 1478 1478 1480 1481 1483 1486 1489 1492 1495 1499 1504 1508 1512 1516 1520 1524 1528 1531 1535 1538 1541 1544 1545 1547 1548 1550 1551
1490 1493 1485 1484 1486 1489 1492 1496 1494 1483 1477 1479 1482 1480 1476 1475 1475 1476 1476 1478 1479 1482 1485 1488 1490 1494 1497 1501 1505 1509 1514 1518 1522 1526 1530 1534 1537 1540 1543 1545 1546 1548 1549 1550
1489 1483 1479 1482 1484 1488 1489 1492 1490 1487 1480 1480 1483 1485 1478 1475 1475 1476 1476 1477 1479 1480 1482 1485 1489 1492 1495 1498 1502 1506 1511 1515 1520 1524 1529 1532 1536 1539 1541 1543 1545 1547 1549 1550
1484 1477 1478 1481 1483 1483 1491 1480 1481 1483 1490 1496 1491 1501 1484 1478 1477 1475 1475 1476 1477 1479 1481 1484 1486 1489 1492 1495 1499 1503 1508 1513 1517 1522 1525 1529 1532 1535 1539 1542 1544 1546 1548 1550
1480 1474 1475 1479 1476 1476 1480 1477 1480 1484 1490 1498 1496 1501 1492 1481 1479 1474 1473 1473 1474 1476 1479 1482 1484 1487 1491 1494 1497 1501 1506 1510 1515 1519 1523 1527 1530 1534 1538 1541 1543 1545 1547 1549
1471 1469 1469 1470 1468 1470 1473 1479 1485 1493 1500 1508 1499 1502 1497 1484 1476 1472 1470 1471 1472 1474 1477 1479 1483 1486 1489 1493 1496 1500 1503 1508 1512 1517 1521 1524 1528 1533 1536 1539 1542 1544 1546 1548
1476 1469 1465 1465 1470 1471 1475 1492 1510 1511 1517 1511 1498 1500 1494 1473 1469 1468 1468 1468 1469 1471 1474 1477 1480 1483 1486 1490 1494 1497 1501 1506 1510 1514 1518 1522 1526 1530 1534 1537 1540 1542 1544 1546
1485 1483 1465 1461 1466 1473 1477 1486 1508 1517 1519 1510 1498 1499 1482 1466 1465 1465 1466 1466 1468 1470 1472 1475 1477 1481 1484 1488 1491 1495 1499 1503 1507 1512 1516 1520 1524 1528 1531 1535 1538 1540 1542 1544
1483 1480 1461 1457 1458 1464 1476 1484 1484 1502 1507 1511 1503 1492 1475 1464 1464 1464 1464 1465 1466 1468 1470 1473 1476 1479 1483 1486 1489 1493 1497 1501 1505 1509 1513 1517 1521 1525 1528 1532 1535 1538 1540 1542
1467 1476 1463 1458 1457 1462 1466 1476 1491 1502 1512 1514 1502 1495 1487 1469 1465 1463 1463 1464 1464 1466 1469 1471 1474 1477 1481 1484 1487 1491 1495 1499 1503 1507 1511 1514 1518 1522 1526 1529 1532 1535 1537 1539
1462 1472 1469 1463 1464 1467 1471 1478 1486 1497 1500 1511 1512 1497 1468 1465 1462 1462 1462 1462 1463 1465 1467 1470 1473 1475 1479 1483 1486 1489 1493 1497 1501 1505 1508 1512 1515 1519 1523 1526 1529 1531 1534 1536
1461 1472 1478 1469 1460 1458 1461 1469 1480 1491 1497 1501 1504 1493 1459 1459 1459 1460 1460 1461 1462 1464 1467 1469 1472 1474 1477 1481 1484 1488 1491 1494 1498 1502 1506 1509 1513 1516 1519 1522 1525 1528 1530 1533
1461 1472 1483 1479 1473 1464 1464 1467 1472 1480 1491 1501 1502 1485 1457 1457 1458 1459 1460 1460 1461 1464 1466 1468 1471 1473 1476 1479 1482 1486 1489 1492 1496 1499 1503 1507 1510 1513 1516 1519 1522 1524 1527 1529
1458 1469 1477 1481 1475 1466 1466 1466 1470 1476 1488 1493 1487 1474 1460 1458 1458 1459 1459 1460 1461 1463 1465 1468 1470 1472 1475 1478 1481 1484 1487 1490 1493 1497 1500 1503 1507 1509 1513 1516 1518 1521 1523 1525
1458 1467 1466 1464 1460 1460 1461 1461 1464 1468 1470 1476 1470 1468 1458 1455 1456 1457 1458 1460 1461 1463 1465 1467 1470 1472 1474 1477 1479 1482 1485 1488 1491 1494 1497 1501 1504 1506 1510 1512 1515 1517 1519 1521
1460 1465 1465 1464 1457 1457 1458 1455 1457 1459 1461 1463 1462 1461 1451 1453 1455 1457 1458 1459 1461 1463 1465 1468 1470 1472 1474 1476 1478 1481 1483 1485 1488 1492 1495 1499 1501 1504 1507 1509 1511 1513 1515 1516
1463 1466 1470 1472 1461 1458 1463 1452 1451 1452 1450 1453 1458 1453 1450 1453 1455 1457 1458 1459 1461 1463 1465 1468 1470 1471 1473 1476 1478 1480 1483 1485 1488 1491 1494 1497 1499 1502 1504 1506 1507 1509 1510 1512
1463 1467 1472 1472 1468 1474 1454 1441 1440 1443 1443 1444 1445 1447 1449 1452 1455 1457 1459 1459 1461 1463 1466 1468 1470 1472 1473 1476 1478 1481 1483 1486 1488 1491 1494 1496 1498 1499 1501 1503 1504 1506 1507 1508
1458 1463 1470 1474 1472 1463 1449 1441 1440 1443 1444 1440 1442 1446 1450 1453 1456 1460 1461 1461 1462 1464 1467 1469 1471 1472 1474 1477 1479 1481 1484 1486 1489 1491 1493 1495 1497 1498 1499 1501 1502 1503 1504 1505
1458 1460 1467 1470 1469 1467 1449 1438 1437 1441 1446 1437 1438 1442 1447 1451 1458 1462 1463 1464 1464 1466 1469 1471 1473 1474 1476 1479 1481 1483 1485 1488 1490 1492 1494 1495 1496 1497 1498 1499 1500 1501 1502 1503
1462 1463 1464 1465 1464 1454 1441 1437 1437 1449 1442 1435 1436 1439 1444 1447 1453 1459 1463 1465 1467 1469 1472 1474 1475 1477 1480 1482 1483 1485 1488 1490 1493 1494 1495 1496 1497 1498 1499 1499 1500 1500 1501 1502
1461 1462 1462 1463 1463 1456 1438 1437 1438 1436 1432 1433 1436 1439 1442 1447 1453 1459 1464 1467 1470 1472 1475 1477 1479 1481 1484 1486 1487 1488 1490 1493 1495 1497 1497 1498 1499 1499 1500 1501 1501 1502 1502 1502
1457 1456 1454 1454 1451 1442 1438 1436 1434 1433 1432 1434 1436 1440 1443 1447 1454 1460 1466 1470 1474 1477 1479 1481 1483 1485 1488 1490 1491 1492 1495 1497 1498 1499 1500 1501 1501 1502 1502 1502 1503 1503 1503 1503
1452 1450 1450 1448 1442 1439 1436 1434 1433 1432 1433 1435 1439 1443 1445 1449 1456 1462 1468 1474 1477 1481 1484 1486 1487 1489 1492 1495 1496 1498 1500 1501 1501 1502 1503 1503 1504 1504 1504 1505 1505 1505 1505 1505
1450 1448 1447 1445 1442 1439 1437 1435 1434 1434 1436 1439 1443 1446 1449 1453 1459 1465 1471 1477 1481 1485 1489 1491 1492 1495 1497 1500 1501 1503 1504 1505 1505 1505 1506 1506 1506 1507 1507 1507 1507 1507 1507 1506
1446 1445 1445 1443 1441 1440 1439 1438 1437 1437 1439 1441 1445 1451 1456 1458 1463 1469 1475 1481 1485 1489 1493 1495 1498 1500 1502 1504 1505 1507 1507 1508 1508 1508 1508 1508 1508 1508 1508 1508 1508 1508 1508 1508